When you browse on this site, cookies collect data to enhance your experience and personalize the content and advertising you see.
Visit our Privacy Policy to learn more. By continuing to use the site, you agree to this use of cookies and data.

Tiempo cada hora Puerto Varas

Hoy, 7 Agosto, Viernes

Tiempo Temperatura Precipitaciones Viento Presión Humedad
00:00 +6°C° 0 mm 1 mps 760 mmHg 86%
01:00 +6°C° 0 mm 1 mps 760 mmHg 85%
02:00 +6°C° 0 mm 1 mps 760 mmHg 86%
03:00 +6°C° 0 mm 1 mps 760 mmHg 87%
04:00 +5°C° 0 mm 1 mps 759 mmHg 88%
05:00 +5°C° 0 mm 1 mps 760 mmHg 88%
06:00 +6°C° 0 mm 1 mps 760 mmHg 87%
07:00 +6°C° 0 mm 1 mps 760 mmHg 87%
08:00 +7°C° 0 mm 1 mps 760 mmHg 83%
09:00 +8°C° 0 mm 1 mps 760 mmHg 78%
10:00 +9°C° 0 mm 1 mps 760 mmHg 74%
11:00 +10°C° 0 mm 1 mps 760 mmHg 72%
12:00 +11°C° 0 mm 1 mps 759 mmHg 70%
13:00 +11°C° 0 mm 0 mps 759 mmHg 68%
14:00 +10°C° 0 mm 0 mps 758 mmHg 72%
15:00 +10°C° 0 mm 0 mps 758 mmHg 76%
16:00 +9°C° 0 mm 0 mps 757 mmHg 81%
17:00 +9°C° 0 mm 0 mps 757 mmHg 83%
18:00 +8°C° 0 mm 0 mps 757 mmHg 86%
19:00 +7°C° 0 mm 0 mps 757 mmHg 89%
20:00 +8°C° 0 mm 1 mps 757 mmHg 91%
21:00 +7°C° 0 mm 1 mps 757 mmHg 92%
22:00 +6°C° 0 mm 2 mps 757 mmHg 93%
23:00 +6°C° 0 mm 2 mps 757 mmHg 92%

Mañana, 8 Agosto, Sábado

Tiempo Temperatura Precipitaciones Viento Presión Humedad
00:00 +6°C° 0 mm 2 mps 757 mmHg 91%
01:00 +6°C° 0 mm 2 mps 756 mmHg 90%
02:00 +5°C° 0 mm 3 mps 756 mmHg 89%
03:00 +7°C° 0 mm 3 mps 755 mmHg 87%
04:00 +7°C° 0 mm 3 mps 755 mmHg 85%
05:00 +7°C° 0.3 mm 3 mps 755 mmHg 86%
06:00 +6°C° 0.3 mm 4 mps 755 mmHg 87%
07:00 +6°C° 0.3 mm 4 mps 754 mmHg 89%
08:00 +7°C° 0.7 mm 4 mps 754 mmHg 90%
09:00 +7°C° 0.7 mm 4 mps 754 mmHg 91%
10:00 +7°C° 0.7 mm 5 mps 754 mmHg 92%
11:00 +7°C° 1 mm 5 mps 753 mmHg 92%
12:00 +7°C° 1 mm 5 mps 753 mmHg 93%
13:00 +7°C° 1 mm 5 mps 752 mmHg 94%
14:00 +7°C° 1.4 mm 5 mps 752 mmHg 94%
15:00 +7°C° 1.4 mm 4 mps 752 mmHg 95%
16:00 +8°C° 1.4 mm 4 mps 752 mmHg 95%
17:00 +8°C° 2.4 mm 4 mps 751 mmHg 95%
18:00 +8°C° 2.4 mm 4 mps 751 mmHg 96%
19:00 +8°C° 2.4 mm 4 mps 751 mmHg 96%
20:00 +8°C° 2.9 mm 4 mps 751 mmHg 96%
21:00 +8°C° 2.9 mm 4 mps 751 mmHg 96%
22:00 +9°C° 2.9 mm 3 mps 750 mmHg 96%
23:00 +9°C° 2.2 mm 3 mps 751 mmHg 96%

Pasado mañana, 9 Agosto, Domingo

Tiempo Temperatura Precipitaciones Viento Presión Humedad
00:00 +9°C° 2.2 mm 3 mps 751 mmHg 96%
01:00 +9°C° 2.2 mm 3 mps 751 mmHg 96%
02:00 +8°C° 2.6 mm 3 mps 751 mmHg 96%
03:00 +8°C° 2.6 mm 2 mps 750 mmHg 96%
04:00 +8°C° 2.6 mm 2 mps 750 mmHg 97%
05:00 +8°C° 1 mm 2 mps 751 mmHg 97%
06:00 +7°C° 1 mm 2 mps 751 mmHg 96%
07:00 +7°C° 1 mm 2 mps 752 mmHg 96%
08:00 +7°C° 0.3 mm 2 mps 753 mmHg 94%
09:00 +7°C° 0.3 mm 2 mps 753 mmHg 92%
10:00 +8°C° 0.3 mm 2 mps 754 mmHg 90%
11:00 +8°C° 0.1 mm 2 mps 754 mmHg 88%
12:00 +8°C° 0.1 mm 2 mps 755 mmHg 86%
13:00 +9°C° 0.1 mm 1 mps 755 mmHg 84%
14:00 +7°C° 0.1 mm 2 mps 755 mmHg 84%
15:00 +7°C° 0.1 mm 2 mps 756 mmHg 84%
16:00 +6°C° 0.1 mm 2 mps 756 mmHg 84%
17:00 +6°C° 0.2 mm 2 mps 756 mmHg 85%
18:00 +4°C° 0.2 mm 3 mps 756 mmHg 86%
19:00 +4°C° 0.2 mm 3 mps 756 mmHg 87%
20:00 +4°C° 0.8 mm 3 mps 756 mmHg 90%
21:00 +4°C° 0.8 mm 3 mps 756 mmHg 93%
22:00 +4°C° 0.8 mm 4 mps 756 mmHg 96%
23:00 +3°C° 0.5 mm 4 mps 757 mmHg 93%

10 Agosto, Lunes

Tiempo Temperatura Precipitaciones Viento Presión Humedad
00:00 +3°C° 0.5 mm 3 mps 757 mmHg 91%
01:00 +2°C° 0.5 mm 3 mps 758 mmHg 88%
02:00 +2°C° 0.1 mm 3 mps 758 mmHg 89%
03:00 +2°C° 0.1 mm 3 mps 758 mmHg 90%
04:00 +2°C° 0.1 mm 2 mps 759 mmHg 90%
05:00 +2°C° 0.3 mm 2 mps 759 mmHg 92%
06:00 +3°C° 0.3 mm 2 mps 759 mmHg 93%
07:00 +3°C° 0.3 mm 2 mps 760 mmHg 95%
08:00 +4°C° 0.5 mm 2 mps 760 mmHg 93%
09:00 +3°C° 0.5 mm 3 mps 760 mmHg 91%
10:00 +4°C° 0.5 mm 4 mps 760 mmHg 89%
11:00 +4°C° 0.4 mm 3 mps 760 mmHg 88%
12:00 +5°C° 0.4 mm 3 mps 760 mmHg 88%
13:00 +5°C° 0.4 mm 3 mps 760 mmHg 87%
14:00 +5°C° 0.2 mm 3 mps 760 mmHg 85%
15:00 +6°C° 0.2 mm 2 mps 760 mmHg 83%
16:00 +6°C° 0.2 mm 2 mps 761 mmHg 82%
17:00 +5°C° 0.1 mm 2 mps 761 mmHg 85%
18:00 +5°C° 0.1 mm 1 mps 761 mmHg 88%
19:00 +4°C° 0.1 mm 1 mps 761 mmHg 91%
20:00 +4°C° 0 mm 1 mps 761 mmHg 92%
21:00 +4°C° 0 mm 1 mps 761 mmHg 93%
22:00 +4°C° 0 mm 1 mps 761 mmHg 93%
23:00 +3°C° 0.1 mm 2 mps 760 mmHg 94%

11 Agosto, Martes

Tiempo Temperatura Precipitaciones Viento Presión Humedad
00:00 +4°C° 0.1 mm 2 mps 760 mmHg 94%
01:00 +4°C° 0.1 mm 2 mps 760 mmHg 94%
02:00 +4°C° 0.1 mm 2 mps 759 mmHg 94%
03:00 +3°C° 0.1 mm 2 mps 759 mmHg 95%
04:00 +3°C° 0.1 mm 2 mps 758 mmHg 95%
05:00 +3°C° 0.1 mm 2 mps 758 mmHg 95%
06:00 +4°C° 0.1 mm 2 mps 758 mmHg 95%
07:00 +4°C° 0.1 mm 2 mps 757 mmHg 95%
08:00 +5°C° 0 mm 2 mps 757 mmHg 93%
09:00 +5°C° 0 mm 2 mps 757 mmHg 90%
10:00 +6°C° 0 mm 2 mps 756 mmHg 88%
11:00 +7°C° 0.2 mm 2 mps 756 mmHg 87%
12:00 +7°C° 0.2 mm 2 mps 755 mmHg 87%
13:00 +7°C° 0.2 mm 2 mps 754 mmHg 87%
14:00 +7°C° 0.3 mm 2 mps 754 mmHg 89%
15:00 +7°C° 0.3 mm 2 mps 753 mmHg 90%
16:00 +7°C° 0.3 mm 2 mps 753 mmHg 92%
17:00 +7°C° 0.2 mm 2 mps 752 mmHg 92%
18:00 +6°C° 0.2 mm 2 mps 752 mmHg 93%
19:00 +6°C° 0.2 mm 2 mps 752 mmHg 93%
20:00 +6°C° 0.5 mm 2 mps 751 mmHg 94%
21:00 +5°C° 0.5 mm 3 mps 751 mmHg 94%
22:00 +5°C° 0.5 mm 3 mps 750 mmHg 95%
23:00 +5°C° 0.5 mm 3 mps 750 mmHg 95%

12 Agosto, Miércoles

Tiempo Temperatura Precipitaciones Viento Presión Humedad
00:00 +5°C° 0.5 mm 3 mps 749 mmHg 95%
01:00 +5°C° 0.5 mm 3 mps 749 mmHg 96%
02:00 +5°C° 0.8 mm 3 mps 748 mmHg 95%
03:00 +5°C° 0.8 mm 3 mps 748 mmHg 95%
04:00 +5°C° 0.8 mm 3 mps 747 mmHg 95%
05:00 +4°C° 2.3 mm 3 mps 747 mmHg 96%
06:00 +4°C° 2.3 mm 3 mps 747 mmHg 96%
07:00 +3°C° 2.3 mm 3 mps 747 mmHg 97%
08:00 +4°C° 0.3 mm 3 mps 747 mmHg 92%
09:00 +4°C° 0.3 mm 3 mps 748 mmHg 87%
10:00 +4°C° 0.3 mm 3 mps 748 mmHg 82%
11:00 +5°C° 0.1 mm 3 mps 748 mmHg 74%
12:00 +7°C° 0.1 mm 3 mps 748 mmHg 67%
13:00 +7°C° 0.1 mm 2 mps 748 mmHg 59%
14:00 +6°C° 0.3 mm 2 mps 749 mmHg 68%
15:00 +5°C° 0.3 mm 2 mps 749 mmHg 76%
16:00 +5°C° 0.3 mm 2 mps 749 mmHg 85%
17:00 +4°C° 0.2 mm 2 mps 750 mmHg 86%
18:00 +3°C° 0.2 mm 2 mps 750 mmHg 87%
19:00 +1°C° 0.2 mm 3 mps 751 mmHg 89%
20:00 +1°C° 0.1 mm 2 mps 751 mmHg 89%
21:00 +1°C° 0.1 mm 2 mps 752 mmHg 90%
22:00 -1°C° 0.1 mm 2 mps 752 mmHg 91%
23:00 +1°C° 0.1 mm 1 mps 752 mmHg 91%
Mostrar más